Time,TemperatureF,DewpointF,PressureIn,WindDirection,WindDirectionDegrees,WindSpeedMPH,WindSpeedGustMPH,Humidity,HourlyPrecipIn,Conditions,Clouds,dailyrainin,SolarRadiationWatts/m^2,SoftwareType,DateUTC
2013-04-13 00:23:00,44.0,36.0,-100.00,SW,229,8.0,18.0,74,0.00,,,0.00,1.000000,,2013-04-13 07:23:00,
2013-04-13 00:33:00,44.0,36.0,-100.00,SW,229,8.0,18.0,74,0.00,,,0.00,1.000000,,2013-04-13 07:33:00,
2013-04-13 00:44:00,44.0,36.0,-100.00,SW,229,8.0,18.0,74,0.00,,,0.00,1.000000,,2013-04-13 07:44:00,
2013-04-13 00:53:00,44.0,36.0,-100.00,SW,229,8.0,18.0,74,0.00,,,0.00,1.000000,,2013-04-13 07:53:00,
2013-04-13 01:24:00,44.0,37.0,-100.00,SW,228,10.0,18.0,77,0.00,,,0.00,1.000000,,2013-04-13 08:24:00,
2013-04-13 01:33:00,44.0,37.0,-100.00,SW,228,10.0,18.0,77,0.00,,,0.00,1.000000,,2013-04-13 08:33:00,
2013-04-13 01:44:00,44.0,37.0,-100.00,SW,228,10.0,18.0,77,0.00,,,0.00,1.000000,,2013-04-13 08:44:00,
2013-04-13 02:23:00,42.0,35.0,-100.00,SW,231,16.0,24.0,75,0.00,,,0.00,1.000000,,2013-04-13 09:23:00,
2013-04-13 02:35:00,42.0,35.0,-100.00,SW,231,16.0,24.0,75,0.00,,,0.00,1.000000,,2013-04-13 09:35:00,
2013-04-13 02:46:00,42.0,35.0,-100.00,SW,231,16.0,24.0,75,0.00,,,0.00,1.000000,,2013-04-13 09:46:00,
2013-04-13 02:53:00,42.0,35.0,-100.00,SW,231,16.0,24.0,75,0.00,,,0.00,1.000000,,2013-04-13 09:53:00,
2013-04-13 03:23:00,42.0,34.0,-100.00,WSW,257,15.0,28.0,73,0.00,,,0.00,1.000000,,2013-04-13 10:23:00,
2013-04-13 03:44:00,42.0,34.0,-100.00,WSW,257,15.0,28.0,73,0.00,,,0.00,1.000000,,2013-04-13 10:44:00,
2013-04-13 03:53:00,42.0,34.0,-100.00,WSW,257,15.0,28.0,73,0.00,,,0.00,1.000000,,2013-04-13 10:53:00,
2013-04-13 04:23:00,41.0,32.0,-100.00,West,261,13.0,33.0,69,0.00,,,0.00,1.000000,,2013-04-13 11:23:00,
2013-04-13 04:33:00,41.0,32.0,-100.00,West,261,13.0,33.0,69,0.00,,,0.00,1.000000,,2013-04-13 11:33:00,
2013-04-13 04:44:00,41.0,32.0,-100.00,West,261,13.0,33.0,69,0.00,,,0.00,1.000000,,2013-04-13 11:44:00,
2013-04-13 04:52:00,41.0,32.0,-100.00,West,261,13.0,33.0,69,0.00,,,0.00,1.000000,,2013-04-13 11:52:00,
2013-04-13 05:23:00,39.0,28.0,-100.00,WSW,257,12.0,24.0,65,0.00,,,0.00,1.000000,,2013-04-13 12:23:00,
2013-04-13 05:34:00,39.0,28.0,-100.00,WSW,257,12.0,24.0,65,0.00,,,0.00,1.000000,,2013-04-13 12:34:00,
2013-04-13 05:52:00,39.0,28.0,-100.00,WSW,257,12.0,24.0,65,0.00,,,0.00,1.000000,,2013-04-13 12:52:00,
2013-04-13 06:24:00,37.0,23.0,-100.00,WSW,249,6.0,25.0,57,0.00,,,0.00,1.000000,,2013-04-13 13:24:00,
2013-04-13 06:33:00,37.0,23.0,-100.00,WSW,249,6.0,25.0,57,0.00,,,0.00,1.000000,,2013-04-13 13:33:00,
2013-04-13 06:45:00,37.0,23.0,-100.00,WSW,249,6.0,25.0,57,0.00,,,0.00,1.000000,,2013-04-13 13:45:00,
2013-04-13 06:53:00,37.0,23.0,-100.00,WSW,249,6.0,25.0,57,0.00,,,0.00,1.000000,,2013-04-13 13:53:00,
2013-04-13 08:26:00,38.0,22.0,-100.00,SW,223,10.0,17.0,53,-99.99,,,0.00,112.000000,,2013-04-13 15:26:00,
2013-04-13 08:34:00,38.0,22.0,-100.00,SW,223,10.0,17.0,53,-99.99,,,0.00,112.000000,,2013-04-13 15:34:00,
2013-04-13 08:43:00,38.0,22.0,-100.00,SW,223,10.0,17.0,53,-99.99,,,0.00,112.000000,,2013-04-13 15:43:00,
2013-04-13 08:53:00,38.0,22.0,-100.00,SW,223,10.0,17.0,53,-99.99,,,0.00,112.000000,,2013-04-13 15:53:00,
2013-04-13 09:24:00,38.0,22.0,-100.00,WSW,250,11.0,24.0,53,0.00,,,0.00,271.000000,,2013-04-13 16:24:00,
2013-04-13 09:34:00,38.0,22.0,-100.00,WSW,250,11.0,24.0,53,0.00,,,0.00,271.000000,,2013-04-13 16:34:00,
2013-04-13 09:44:00,38.0,22.0,-100.00,WSW,250,11.0,24.0,53,0.00,,,0.00,271.000000,,2013-04-13 16:44:00,
2013-04-13 09:53:00,38.0,22.0,-100.00,WSW,250,11.0,24.0,53,0.00,,,0.00,271.000000,,2013-04-13 16:53:00,
2013-04-13 11:24:00,42.0,23.0,-100.00,SW,217,10.0,22.0,46,-99.99,,,-99.99,698.000000,,2013-04-13 18:24:00,
2013-04-13 11:32:00,42.0,23.0,-100.00,SW,217,10.0,22.0,46,-99.99,,,-99.99,698.000000,,2013-04-13 18:32:00,
2013-04-13 11:42:00,42.0,23.0,-100.00,SW,217,10.0,22.0,46,-99.99,,,-99.99,698.000000,,2013-04-13 18:42:00,
2013-04-13 11:52:00,42.0,23.0,-100.00,SW,217,10.0,22.0,46,-99.99,,,-99.99,698.000000,,2013-04-13 18:52:00,
2013-04-13 12:22:00,44.0,21.0,-100.00,WNW,291,8.0,18.0,39,0.00,,,0.00,809.000000,,2013-04-13 19:22:00,
2013-04-13 12:32:00,44.0,21.0,-100.00,WNW,291,8.0,18.0,39,0.00,,,0.00,809.000000,,2013-04-13 19:32:00,
2013-04-13 12:42:00,44.0,21.0,-100.00,WNW,291,8.0,18.0,39,0.00,,,0.00,809.000000,,2013-04-13 19:42:00,
2013-04-13 12:52:00,44.0,21.0,-100.00,WNW,291,8.0,18.0,39,0.00,,,0.00,809.000000,,2013-04-13 19:52:00,
2013-04-13 13:22:00,44.0,21.0,-100.00,NW,304,11.0,20.0,40,0.00,,,0.00,930.000000,,2013-04-13 20:22:00,
2013-04-13 13:32:00,44.0,21.0,-100.00,NW,304,11.0,20.0,40,0.00,,,0.00,930.000000,,2013-04-13 20:32:00,
2013-04-13 13:42:00,44.0,21.0,-100.00,NW,304,11.0,20.0,40,0.00,,,0.00,930.000000,,2013-04-13 20:42:00,
2013-04-13 13:52:00,44.0,21.0,-100.00,NW,304,11.0,20.0,40,0.00,,,0.00,930.000000,,2013-04-13 20:52:00,
2013-04-13 14:22:00,43.0,20.0,-100.00,NW,305,13.0,24.0,40,0.00,,,0.00,916.000000,,2013-04-13 21:22:00,
2013-04-13 14:32:00,43.0,20.0,-100.00,NW,305,13.0,24.0,40,0.00,,,0.00,916.000000,,2013-04-13 21:32:00,
2013-04-13 14:43:00,43.0,20.0,-100.00,NW,305,13.0,24.0,40,0.00,,,0.00,916.000000,,2013-04-13 21:43:00,
2013-04-13 14:52:00,43.0,20.0,-100.00,NW,305,13.0,24.0,40,0.00,,,0.00,916.000000,,2013-04-13 21:52:00,
2013-04-13 15:22:00,44.0,22.0,-100.00,WNW,293,15.0,23.0,41,0.00,,,0.00,889.000000,,2013-04-13 22:22:00,
2013-04-13 15:33:00,44.0,22.0,-100.00,WNW,293,15.0,23.0,41,0.00,,,0.00,889.000000,,2013-04-13 22:33:00,
2013-04-13 15:42:00,44.0,22.0,-100.00,WNW,293,15.0,23.0,41,0.00,,,0.00,889.000000,,2013-04-13 22:42:00,
2013-04-13 15:52:00,44.0,22.0,-100.00,WNW,293,15.0,23.0,41,0.00,,,0.00,889.000000,,2013-04-13 22:52:00,
2013-04-13 16:22:00,43.0,22.0,-100.00,WNW,295,13.0,23.0,42,0.00,,,0.00,819.000000,,2013-04-13 23:22:00,
2013-04-13 16:32:00,43.0,22.0,-100.00,WNW,295,13.0,23.0,42,0.00,,,0.00,819.000000,,2013-04-13 23:32:00,
2013-04-13 16:41:00,43.0,22.0,-100.00,WNW,295,13.0,23.0,42,0.00,,,0.00,819.000000,,2013-04-13 23:41:00,
2013-04-13 16:52:00,43.0,22.0,-100.00,WNW,295,13.0,23.0,42,0.00,,,0.00,819.000000,,2013-04-13 23:52:00,
2013-04-13 17:22:00,43.0,19.0,-100.00,WNW,286,14.0,24.0,38,0.00,,,0.00,655.000000,,2013-04-14 00:22:00,
2013-04-13 17:32:00,43.0,19.0,-100.00,WNW,286,14.0,24.0,38,0.00,,,0.00,655.000000,,2013-04-14 00:32:00,
2013-04-13 17:42:00,43.0,19.0,-100.00,WNW,286,14.0,24.0,38,0.00,,,0.00,655.000000,,2013-04-14 00:42:00,
2013-04-13 17:52:00,43.0,19.0,-100.00,WNW,286,14.0,24.0,38,0.00,,,0.00,655.000000,,2013-04-14 00:52:00,
2013-04-13 18:22:00,42.0,19.0,-100.00,WNW,296,12.0,20.0,40,0.00,,,0.00,406.000000,,2013-04-14 01:22:00,
2013-04-13 18:32:00,42.0,19.0,-100.00,WNW,296,12.0,20.0,40,0.00,,,0.00,406.000000,,2013-04-14 01:32:00,
2013-04-13 18:42:00,42.0,19.0,-100.00,WNW,296,12.0,20.0,40,0.00,,,0.00,406.000000,,2013-04-14 01:42:00,
2013-04-13 18:52:00,42.0,19.0,-100.00,WNW,296,12.0,20.0,40,0.00,,,0.00,406.000000,,2013-04-14 01:52:00,
2013-04-13 19:22:00,39.0,20.0,-100.00,WNW,301,11.0,19.0,46,0.00,,,0.00,284.000000,,2013-04-14 02:22:00,
2013-04-13 19:32:00,39.0,20.0,-100.00,WNW,301,11.0,19.0,46,0.00,,,0.00,284.000000,,2013-04-14 02:32:00,
2013-04-13 19:42:00,39.0,20.0,-100.00,WNW,301,11.0,19.0,46,0.00,,,0.00,284.000000,,2013-04-14 02:42:00,
2013-04-13 19:52:00,39.0,20.0,-100.00,WNW,301,11.0,19.0,46,0.00,,,0.00,284.000000,,2013-04-14 02:52:00,
2013-04-13 20:22:00,34.0,20.0,-100.00,WNW,289,9.0,17.0,57,0.00,,,0.00,48.000000,,2013-04-14 03:22:00,
2013-04-13 20:33:00,34.0,20.0,-100.00,WNW,289,9.0,17.0,57,0.00,,,0.00,48.000000,,2013-04-14 03:33:00,
2013-04-13 20:42:00,34.0,20.0,-100.00,WNW,289,9.0,17.0,57,0.00,,,0.00,48.000000,,2013-04-14 03:42:00,
2013-04-13 20:53:00,34.0,20.0,-100.00,WNW,289,9.0,17.0,57,0.00,,,0.00,48.000000,,2013-04-14 03:53:00,
2013-04-13 21:22:00,33.0,20.0,-100.00,WNW,295,8.0,17.0,59,0.00,,,-99.99,1.000000,,2013-04-14 04:22:00,
2013-04-13 21:32:00,33.0,20.0,-100.00,WNW,295,8.0,17.0,59,0.00,,,-99.99,1.000000,,2013-04-14 04:32:00,
2013-04-13 21:42:00,33.0,20.0,-100.00,WNW,295,8.0,17.0,59,0.00,,,-99.99,1.000000,,2013-04-14 04:42:00,
2013-04-13 21:52:00,33.0,20.0,-100.00,WNW,295,8.0,17.0,59,0.00,,,-99.99,1.000000,,2013-04-14 04:52:00,
2013-04-13 22:22:00,30.0,19.0,-100.00,NW,319,5.0,12.0,63,0.00,,,0.00,1.000000,,2013-04-14 05:22:00,
2013-04-13 22:32:00,30.0,19.0,-100.00,NW,319,5.0,12.0,63,0.00,,,0.00,1.000000,,2013-04-14 05:32:00,
2013-04-13 22:42:00,30.0,19.0,-100.00,NW,319,5.0,12.0,63,0.00,,,0.00,1.000000,,2013-04-14 05:42:00,
2013-04-13 22:52:00,30.0,19.0,-100.00,NW,319,5.0,12.0,63,0.00,,,0.00,1.000000,,2013-04-14 05:52:00,
2013-04-13 23:22:00,31.0,19.0,-100.00,NW,310,11.0,16.0,61,0.00,,,0.00,1.000000,,2013-04-14 06:22:00,
2013-04-13 23:32:00,31.0,19.0,-100.00,NW,310,11.0,16.0,61,0.00,,,0.00,1.000000,,2013-04-14 06:32:00,
2013-04-13 23:42:00,31.0,19.0,-100.00,NW,310,11.0,16.0,61,0.00,,,0.00,1.000000,,2013-04-14 06:42:00,
2013-04-13 23:52:00,31.0,19.0,-100.00,NW,310,11.0,16.0,61,0.00,,,0.00,1.000000,,2013-04-14 06:52:00,